SBI466 LTAY-LCPH

Flight info

Callsign SBI466
Flight time 0h 40m
Altitude 33000
Route KOZLU UL854 AYT UA16 TOMBI M855 DASNI M32 TOBAL
Aircraft A320/M-SDE3FGHIRWY/LB1

Departure

Time 2026-04-20 18:47
Airport Çardak Airport (LTAY)

Arrival

Time 2026-04-20 19:27
Airport Paphos International Airport (LCPH)
Time Latitude Longitude Altitude Speed Heading
2026-04-20 18:21 37.77572 29.69008 2793 ft 0 kts 60°
2026-04-20 18:35 37.77566 29.68995 2793 ft 2 kts 60°
2026-04-20 18:35 37.77558 29.68977 2784 ft 2 kts 58°
2026-04-20 18:36 37.77545 29.68964 2789 ft 2 kts 346°
2026-04-20 18:36 37.77536 29.68969 2784 ft 0 kts 315°
2026-04-20 18:38 37.77542 29.68961 2791 ft 3 kts 315°
2026-04-20 18:38 37.77551 29.68950 2787 ft 2 kts 315°
2026-04-20 18:38 37.77581 29.68911 2786 ft 11 kts 315°
2026-04-20 18:38 37.77646 29.68853 2792 ft 11 kts 329°
2026-04-20 18:39 37.77706 29.68808 2793 ft 9 kts 329°
2026-04-20 18:39 37.77753 29.68772 2789 ft 6 kts 329°
2026-04-20 18:39 37.77777 29.68753 2789 ft 0 kts 328°
2026-04-20 18:45 37.77783 29.68749 2794 ft 4 kts 328°
2026-04-20 18:45 37.77824 29.68717 2791 ft 8 kts 328°
2026-04-20 18:46 37.77867 29.68697 2790 ft 6 kts 12°
2026-04-20 18:46 37.77903 29.68755 2794 ft 21 kts 58°
2026-04-20 18:46 37.78143 29.69259 2788 ft 112 kts 58°
2026-04-20 18:46 37.78685 29.70400 2813 ft 180 kts 60°
2026-04-20 18:47 37.79349 29.71789 3577 ft 187 kts 58°
2026-04-20 18:47 37.80015 29.73234 4501 ft 192 kts 57°
2026-04-20 18:47 37.80715 29.74738 4967 ft 206 kts 58°
2026-04-20 18:47 37.81363 29.76433 5229 ft 229 kts 66°
2026-04-20 18:48 37.82001 29.78396 5539 ft 254 kts 66°
2026-04-20 18:48 37.82712 29.80531 6107 ft 271 kts 65°
2026-04-20 18:48 37.83454 29.82745 6970 ft 275 kts 65°
2026-04-20 18:48 37.84206 29.84990 7803 ft 280 kts 65°
2026-04-20 18:49 37.84960 29.87276 8661 ft 284 kts 69°
2026-04-20 18:49 37.85255 29.89789 9483 ft 294 kts 93°
2026-04-20 18:49 37.84684 29.92292 10262 ft 302 kts 119°
2026-04-20 18:49 37.83278 29.94342 10654 ft 323 kts 145°
2026-04-20 18:50 37.81288 29.95860 10919 ft 346 kts 150°
2026-04-20 18:50 37.79121 29.97408 11133 ft 369 kts 151°
2026-04-20 18:50 37.76811 29.99039 11280 ft 391 kts 152°
2026-04-20 18:50 37.74254 30.00349 11713 ft 401 kts 163°
2026-04-20 18:51 37.71587 30.01447 12347 ft 406 kts 163°
2026-04-20 18:51 37.68887 30.02558 12989 ft 410 kts 163°
2026-04-20 18:51 37.66158 30.03678 13626 ft 415 kts 163°
2026-04-20 18:51 37.63402 30.04807 14207 ft 419 kts 163°
2026-04-20 18:52 37.60606 30.05951 14780 ft 423 kts 163°
2026-04-20 18:52 37.57795 30.07097 15368 ft 426 kts 163°
2026-04-20 18:52 37.54955 30.08253 15941 ft 430 kts 163°
2026-04-20 18:52 37.52103 30.09414 16502 ft 433 kts 163°
2026-04-20 18:53 37.49214 30.10592 17049 ft 437 kts 163°
2026-04-20 18:53 37.46356 30.11760 17601 ft 439 kts 163°
2026-04-20 18:53 37.43441 30.12944 18155 ft 441 kts 163°
2026-04-20 18:53 37.40509 30.14129 18627 ft 444 kts 163°
2026-04-20 18:54 37.37557 30.15325 19064 ft 447 kts 163°
2026-04-20 18:54 37.34584 30.16531 19497 ft 449 kts 163°
2026-04-20 18:54 37.31603 30.17740 19910 ft 452 kts 163°
2026-04-20 18:54 37.28604 30.18955 20314 ft 454 kts 164°
2026-04-20 18:55 37.25589 30.20177 20695 ft 457 kts 163°
2026-04-20 18:55 37.22555 30.21406 21061 ft 459 kts 164°
2026-04-20 18:55 37.19512 30.22637 21408 ft 461 kts 164°
2026-04-20 18:55 37.16452 30.23870 21775 ft 464 kts 164°
2026-04-20 18:56 37.13363 30.25114 22117 ft 466 kts 164°
2026-04-20 18:56 37.10272 30.26359 22463 ft 468 kts 164°
2026-04-20 18:56 37.07161 30.27609 22795 ft 470 kts 164°
2026-04-20 18:56 37.04038 30.28861 23103 ft 472 kts 164°
2026-04-20 18:57 37.00897 30.30121 23398 ft 475 kts 164°
2026-04-20 18:57 36.97744 30.31385 23700 ft 477 kts 164°
2026-04-20 18:57 36.94579 30.32657 23959 ft 478 kts 164°
2026-04-20 18:57 36.91409 30.33932 24203 ft 480 kts 164°
2026-04-20 18:58 36.88220 30.35210 24439 ft 481 kts 164°
2026-04-20 18:58 36.85024 30.36488 24655 ft 483 kts 164°
2026-04-20 18:58 36.81822 30.37767 24894 ft 484 kts 164°
2026-04-20 18:58 36.78608 30.39049 25113 ft 486 kts 164°
2026-04-20 18:59 36.75382 30.40332 25286 ft 487 kts 165°
2026-04-20 18:59 36.72153 30.41617 25463 ft 489 kts 165°
2026-04-20 18:59 36.70000 30.42476 25587 ft 489 kts 164°
2026-04-20 18:59 36.66765 30.43765 25828 ft 489 kts 165°
2026-04-20 19:00 36.62470 30.45479 26165 ft 488 kts 164°
2026-04-20 19:00 36.59236 30.46765 26424 ft 488 kts 165°
2026-04-20 19:00 36.56005 30.48046 26688 ft 487 kts 165°
2026-04-20 19:00 36.52781 30.49321 26908 ft 486 kts 165°
2026-04-20 19:01 36.50601 30.50185 27078 ft 486 kts 165°
2026-04-20 19:01 36.47383 30.51459 27344 ft 485 kts 165°
2026-04-20 19:01 36.44187 30.52723 27646 ft 483 kts 165°
2026-04-20 19:01 36.41019 30.53977 28009 ft 482 kts 165°
2026-04-20 19:02 36.37823 30.55243 28282 ft 482 kts 165°
2026-04-20 19:02 36.34621 30.56513 28560 ft 482 kts 165°
2026-04-20 19:02 36.31426 30.57781 28835 ft 481 kts 165°
2026-04-20 19:02 36.28238 30.59054 29082 ft 481 kts 165°
2026-04-20 19:03 36.25057 30.60347 29375 ft 481 kts 165°
2026-04-20 19:03 36.21876 30.61647 29665 ft 481 kts 165°
2026-04-20 19:03 36.18700 30.62946 29955 ft 481 kts 165°
2026-04-20 19:03 36.15511 30.64191 30208 ft 480 kts 166°
2026-04-20 19:04 36.12322 30.65385 30455 ft 479 kts 166°
2026-04-20 19:04 36.09121 30.66573 30700 ft 479 kts 166°
2026-04-20 19:04 36.05932 30.67771 30886 ft 480 kts 166°
2026-04-20 19:04 36.02746 30.68989 30955 ft 480 kts 166°
2026-04-20 19:05 35.96373 30.71475 30967 ft 480 kts 166°
2026-04-20 19:05 35.90017 30.73984 30970 ft 480 kts 165°
2026-04-20 19:06 35.83926 30.76379 30970 ft 480 kts 166°
2026-04-20 19:06 35.77588 30.78838 30972 ft 481 kts 166°
2026-04-20 19:07 35.71191 30.81311 30970 ft 481 kts 166°
2026-04-20 19:07 35.64935 30.84289 30971 ft 487 kts 153°
2026-04-20 19:08 35.57501 30.92813 30978 ft 495 kts 124°
2026-04-20 19:09 35.53721 30.99879 30960 ft 495 kts 124°
2026-04-20 19:09 35.49921 31.06956 30979 ft 497 kts 124°
2026-04-20 19:10 35.46113 31.14046 30979 ft 498 kts 124°
2026-04-20 19:10 35.42299 31.21134 30980 ft 498 kts 124°
2026-04-20 19:11 35.38473 31.28217 30962 ft 499 kts 125°
2026-04-20 19:11 35.36553 31.31768 30548 ft 500 kts 124°
2026-04-20 19:11 35.34630 31.35319 30147 ft 501 kts 124°
2026-04-20 19:11 35.32703 31.38876 29661 ft 501 kts 124°
2026-04-20 19:12 35.30777 31.42431 29191 ft 502 kts 124°
2026-04-20 19:12 35.28840 31.46006 28706 ft 503 kts 124°
2026-04-20 19:12 35.26905 31.49575 28240 ft 504 kts 124°
2026-04-20 19:12 35.24966 31.53142 27784 ft 504 kts 125°
2026-04-20 19:13 35.23042 31.56675 27341 ft 505 kts 125°
2026-04-20 19:13 35.21095 31.60246 26898 ft 505 kts 125°
2026-04-20 19:13 35.19143 31.63825 26465 ft 506 kts 125°
2026-04-20 19:13 35.17185 31.67414 26036 ft 507 kts 125°
2026-04-20 19:14 35.15200 31.71047 25608 ft 508 kts 125°
2026-04-20 19:14 35.13258 31.74594 25192 ft 509 kts 125°
2026-04-20 19:14 35.11284 31.78191 24780 ft 510 kts 125°
2026-04-20 19:14 35.09308 31.81786 24310 ft 510 kts 125°
2026-04-20 19:15 35.07336 31.85383 23787 ft 507 kts 125°
2026-04-20 19:15 35.05380 31.88954 23206 ft 505 kts 125°
2026-04-20 19:15 35.03432 31.92506 22565 ft 501 kts 125°
2026-04-20 19:15 35.01502 31.96018 21956 ft 496 kts 125°
2026-04-20 19:16 34.99587 31.99497 21358 ft 491 kts 125°
2026-04-20 19:16 34.97691 32.02937 20771 ft 486 kts 125°
2026-04-20 19:16 34.95822 32.06325 20139 ft 477 kts 125°
2026-04-20 19:16 34.93986 32.09645 19510 ft 468 kts 125°
2026-04-20 19:17 34.92177 32.12906 18885 ft 461 kts 126°
2026-04-20 19:17 34.90174 32.15967 18271 ft 462 kts 132°
2026-04-20 19:17 34.88072 32.18914 17573 ft 460 kts 132°
2026-04-20 19:17 34.85975 32.21832 16880 ft 455 kts 132°
2026-04-20 19:18 34.83896 32.24715 16218 ft 451 kts 132°
2026-04-20 19:18 34.81753 32.27461 15557 ft 443 kts 141°
2026-04-20 19:18 34.79238 32.29550 14923 ft 435 kts 150°
2026-04-20 19:18 34.76664 32.31464 14303 ft 431 kts 150°
2026-04-20 19:19 34.74110 32.33347 13666 ft 427 kts 150°
2026-04-20 19:19 34.71589 32.35194 13100 ft 420 kts 150°
2026-04-20 19:19 34.69120 32.36990 12762 ft 406 kts 150°
2026-04-20 19:19 34.66730 32.38723 12492 ft 393 kts 150°
2026-04-20 19:20 34.64417 32.40398 12211 ft 381 kts 150°
2026-04-20 19:20 34.62190 32.42009 11930 ft 361 kts 150°
2026-04-20 19:20 34.60099 32.43522 11525 ft 343 kts 150°
2026-04-20 19:20 34.58106 32.44961 10986 ft 331 kts 149°
2026-04-20 19:21 34.56375 32.46717 10463 ft 321 kts 127°
2026-04-20 19:21 34.55227 32.49030 9869 ft 314 kts 116°
2026-04-20 19:21 34.54260 32.51381 9188 ft 309 kts 112°
2026-04-20 19:21 34.53813 32.53874 8537 ft 299 kts 86°
2026-04-20 19:22 34.54268 32.56264 7896 ft 289 kts 62°
2026-04-20 19:22 34.55208 32.58360 7230 ft 284 kts 57°
2026-04-20 19:22 34.56214 32.60411 6573 ft 281 kts 56°
2026-04-20 19:22 34.57215 32.62429 5949 ft 276 kts 56°
2026-04-20 19:23 34.58215 32.64391 5358 ft 268 kts 50°
2026-04-20 19:23 34.59591 32.65790 4787 ft 254 kts 22°
2026-04-20 19:23 34.61203 32.66594 4196 ft 248 kts 17°
2026-04-20 19:23 34.62861 32.66978 3621 ft 240 kts 357°
2026-04-20 19:24 34.64481 32.66644 3061 ft 234 kts 338°
2026-04-20 19:24 34.65847 32.65697 2777 ft 221 kts 320°
2026-04-20 19:24 34.66845 32.64352 2513 ft 210 kts 302°
2026-04-20 19:24 34.67449 32.62783 2255 ft 201 kts 291°
2026-04-20 19:25 34.67925 32.61227 2021 ft 190 kts 291°
2026-04-20 19:25 34.68372 32.59767 1744 ft 179 kts 291°
2026-04-20 19:25 34.68795 32.58383 1496 ft 169 kts 292°
2026-04-20 19:25 34.69174 32.57143 1303 ft 149 kts 292°
2026-04-20 19:26 34.69525 32.55995 1106 ft 140 kts 292°
2026-04-20 19:26 34.69859 32.54896 925 ft 137 kts 291°
2026-04-20 19:26 34.70183 32.53815 759 ft 135 kts 292°
2026-04-20 19:26 34.70510 32.52748 528 ft 135 kts 292°
2026-04-20 19:27 34.70832 32.51693 352 ft 135 kts 292°
2026-04-20 19:27 34.71156 32.50618 170 ft 136 kts 291°
2026-04-20 19:27 34.71481 32.49560 36 ft 127 kts 293°
2026-04-20 19:27 34.71698 32.48869 38 ft 45 kts 290°
2026-04-20 19:28 34.71791 32.48565 35 ft 26 kts 290°
2026-04-20 19:28 34.71805 32.48417 37 ft 11 kts 214°
2026-04-20 19:28 34.71738 32.48386 37 ft 10 kts 198°
2026-04-20 19:28 34.71672 32.48359 37 ft 10 kts 198°
2026-04-20 19:29 34.71596 32.48328 37 ft 14 kts 199°